DELTA 1 DEB, 7041

Orbit data source: Space-Track

DELTA 1 DEB, 7041 is space debris in SSO originally from a launch on Tue, 06 Nov 1973 UTC launched from the Air Force Western Test Range (AFWTR). Debris objects in space refer to the collection of defunct objects orbiting the Earth. Examples of debris include non-operational satellites, rocket bodies, and fragments generated from explosions, collisions, or faulty payload assembly.

Loading next visibility...
Identifier
7041, 1973-086AH
Orbit
SSO
Last TLE update
13 hours ago
Origin
Manufacturer
Unknown
Mission
Spacecraft
Bus & Motor
Unknown
Mass
Unknown
Launch date (UTC)
1973-11-06 (52 years ago)
Launch vehicle
Unknown
Launch site
Air Force Western Test Range (AFWTR)
Object type
Payload
Rocket body
Debris
Shape & HBR
Unknown
Radar Cross Section
Medium (>0.1 m² and <1 m²)

Expand to show TLE details & history

TLE from 13 hours ago
0 DELTA 1 DEB
1 07041U 73086AH  25183.72044111  .00000715  00000-0  54907-2 0  9995
2 07041 101.5892 220.4528 0192489 157.3597 324.7824 12.37509609311369
Epoch: 2025-07-02T17:17Z
TLE epoch observation values (Epoch: 2025-07-02T17:17:26.111Z)
Latitude
57.34612°
Longitude
-121.33643°
Altitude
1,403.428 km
Speed
7.219 km/s
True Right ascension
03h 56m 04s
True Declination
57° 12' 10"
Sunlit
Object was in daylight at epoch
Visualization orbit readout
Latitude
76.99621°
Longitude
-21.46012°
Altitude
1,481.44 km
Speed
7.151 km/s
Apparent Right ascension
07h 27m 43s
Apparent Declination
30° 59' 52"
Sunlit
Object is in daylight
Visualization observer readout
Local Sidereal Time
18:26:21
Azimuth
346.23° N
Elevation
-17.672°
Doppler factor
1
Orbital elements
Apogee altitude
1,666.66 km
Perigee altitude
1,362.802 km
Semi-major axis
7,892.868 km
Eccentricity
0.01925
Inclination
101.5892°
RAAN
220.4528°
Arg. of periapsis
157.3597°
True anomaly
Unknown
Mean anomaly
324.7824°
Eccentric anomaly
Unknown
Mean motion
3.09522 °/min
Orbital period
116.31 mins
BSTAR
0.0054907
Loading maneuver chart data...
Loading SW <> Apogee altitude chart data...
Loading historical data...
Loading historical data...
Loading historical data...
Loading historical data...
Loading historical data...
Loading historical data...
Loading historical data...

DELTA 1 DEB Visibility forecast

Observer location: undefined°, undefined°

Span
Click to sort rows by Start time (UTC) header in descending order
Start Az.
Max El. time (UTC)
Max El. Az.
Max El.
End time (UTC)
End Az.
14 mins2025-07-03 14:37:38.390Z32.375° NE2025-07-03 14:44:38.390Z104.035° ESE34.2°2025-07-03 14:51:38.390Z169.25° S
13 mins2025-07-03 16:32:38.390Z359.169° N2025-07-03 16:38:38.390Z297.888° NW32.651°2025-07-03 16:45:38.390Z233.506° WSW
7 mins2025-07-03 23:55:38.390Z70.626° E2025-07-03 23:58:38.390Z48.693° ENE14.9°2025-07-04 00:02:38.390Z19.417° NNE
16 mins2025-07-04 01:43:38.390Z144.963° SSE2025-07-04 01:51:38.390Z59.812° ENE42.335°2025-07-04 01:59:38.390Z348.856° N
13 mins2025-07-04 03:39:38.390Z212.638° SW2025-07-04 03:45:38.390Z259.954° W25.718°2025-07-04 03:52:38.390Z318.007° NNW
|